Location: Casteau
(50.5142°N, 4.0161°E)
Time: 05:16:19
(UTC+00:00)

Cosmos 2195 Rocket - Pass Details

Date: 18 September 2020
Orbit: 948 x 994 km, 82.9° (Epoch: 27 October)

Event Time Altitude Azimuth Distance (km) Brightness Sun altitude
Rises 19:51:02 0° 351° (N) 3,707 8.1 -19.2°
Reaches altitude 10° 19:53:35 10° 353° (N) 2,748 7.3 -19.6°
Maximum altitude 19:59:53 74° 79° (ENE) 1,016 4.4 -20.5°
Enters shadow 20:03:08 30° 158° (SSE) 1,661 5.3 -20.9°
